This is the latest recevied weather packets stored in our database for station/object DG4MND-4. If no packets are shown the sender has not sent any weather packets the latest 10 day(s).
| Time | Temp. | Humidity | Pressure | Rain* | Wind** | Luminosity | Snow |
|---|---|---|---|---|---|---|---|
| 1777648257 | 21.67° C | 30% | 1023.2 hPa | 0 mm | - | - | - |
| 1777647654 | 22.22° C | 30% | 1023.4 hPa | 0 mm | - | - | - |
| 1777647053 | 22.22° C | 29% | 1023.3 hPa | 0 mm | - | - | - |
| 1777646450 | 22.22° C | 29% | 1023.4 hPa | 0 mm | - | - | - |
| 1777645843 | 21.67° C | 29% | 1023.5 hPa | 0 mm | - | - | - |
| 1777645240 | 22.22° C | 29% | 1023.5 hPa | 0 mm | - | - | - |
| 1777644636 | 21.67° C | 28% | 1023.5 hPa | 0 mm | - | - | - |
| 1777644033 | 22.22° C | 29% | 1023.6 hPa | 0 mm | - | - | - |
| 1777643429 | 22.22° C | 29% | 1023.6 hPa | 0 mm | - | - | - |
| 1777642829 | 22.22° C | 28% | 1023.7 hPa | 0 mm | - | - | - |
| 1777642222 | 21.67° C | 28% | 1023.8 hPa | 0 mm | - | - | - |
| 1777641623 | 21.67° C | 28% | 1023.9 hPa | 0 mm | - | - | - |
| 1777641015 | 21.67° C | 27% | 1024 hPa | 0 mm | - | - | - |
| 1777640475 | 21.67° C | 28% | 1024 hPa | 0 mm | - | - | - |
| 1777639872 | 21.11° C | 29% | 1024.1 hPa | 0 mm | - | - | - |
| 1777639268 | 21.11° C | 28% | 1024.4 hPa | 0 mm | - | - | - |
| 1777638665 | 21.11° C | 28% | 1024.3 hPa | 0 mm | - | - | - |
| 1777638062 | 21.11° C | 27% | 1024.5 hPa | 0 mm | - | - | - |
| 1777637455 | 20.56° C | 27% | 1024.4 hPa | 0 mm | - | - | - |
| 1777636854 | 20.56° C | 28% | 1024.4 hPa | 0 mm | - | - | - |
| 1777636248 | 20° C | 27% | 1024.6 hPa | 0 mm | - | - | - |
| 1777635645 | 20° C | 29% | 1024.6 hPa | 0 mm | - | - | - |
| 1777635044 | 19.44° C | 27% | 1024.9 hPa | 0 mm | - | - | - |
| 1777634446 | 19.44° C | 27% | 1024.8 hPa | 0 mm | - | - | - |
| 1777633834 | 19.44° C | 29% | 1025 hPa | 0 mm | - | - | - |
* Rain latest hour (hover to see other rain measurements)
** Current wind speed in m/s (hover to see current wind gust speed)